When you browse on this site, cookies collect data to enhance your experience and personalize the content and advertising you see.
Visit our Privacy Policy to learn more. By continuing to use the site, you agree to this use of cookies and data.
  • en France
  • Liste des pays
  • À 7 jours
  • Température de l'eau
  • Carte météo
  • Widgets météo
  • user-avatar
    Se connecter

    Météo par heure à Montréal

    Ce jour, 6 Avril, Lundi

    Heure Température Précipitation Vent Pression Humidité
    00:00 +2°C° 0 mm 2 m/s 759 mmHg 82%
    01:00 +1°C° 0 mm 2 m/s 759 mmHg 81%
    02:00 +1°C° 0 mm 2 m/s 760 mmHg 82%
    03:00 -1°C° 0 mm 2 m/s 760 mmHg 83%
    04:00 -1°C° 0 mm 2 m/s 760 mmHg 83%
    05:00 -1°C° 0 mm 2 m/s 760 mmHg 81%
    06:00 -1°C° 0 mm 2 m/s 760 mmHg 78%
    07:00 +1°C° 0 mm 2 m/s 761 mmHg 75%
    08:00 +1°C° 0 mm 3 m/s 760 mmHg 70%
    09:00 +1°C° 0 mm 4 m/s 760 mmHg 65%
    10:00 +3°C° 0 mm 5 m/s 759 mmHg 59%
    11:00 +5°C° 0 mm 5 m/s 759 mmHg 55%
    12:00 +6°C° 0 mm 5 m/s 759 mmHg 51%
    13:00 +8°C° 0 mm 5 m/s 758 mmHg 47%
    14:00 +8°C° 0 mm 5 m/s 757 mmHg 46%
    15:00 +8°C° 0 mm 5 m/s 757 mmHg 44%
    16:00 +9°C° 0 mm 5 m/s 756 mmHg 43%
    17:00 +7°C° 0 mm 4 m/s 756 mmHg 48%
    18:00 +7°C° 0 mm 3 m/s 757 mmHg 54%
    19:00 +6°C° 0 mm 2 m/s 757 mmHg 60%
    20:00 +5°C° 0 mm 2 m/s 757 mmHg 63%
    21:00 +5°C° 0 mm 2 m/s 757 mmHg 67%
    22:00 +4°C° 0 mm 2 m/s 756 mmHg 71%
    23:00 +3°C° 0 mm 2 m/s 756 mmHg 72%

    Demain, 7 Avril, Mardi

    Heure Température Précipitation Vent Pression Humidité
    00:00 +4°C° 0 mm 1 m/s 756 mmHg 74%
    01:00 +4°C° 0 mm 1 m/s 756 mmHg 76%
    02:00 +3°C° 0 mm 1 m/s 756 mmHg 77%
    03:00 +3°C° 0 mm 1 m/s 756 mmHg 78%
    04:00 +2°C° 0 mm 1 m/s 756 mmHg 80%
    05:00 +3°C° 0 mm 1 m/s 756 mmHg 78%
    06:00 +3°C° 0 mm 1 m/s 756 mmHg 76%
    07:00 +3°C° 0 mm 1 m/s 756 mmHg 74%
    08:00 +5°C° 0 mm 1 m/s 756 mmHg 68%
    09:00 +5°C° 0 mm 2 m/s 756 mmHg 62%
    10:00 +7°C° 0 mm 2 m/s 755 mmHg 56%
    11:00 +7°C° 0 mm 3 m/s 755 mmHg 53%
    12:00 +8°C° 0 mm 3 m/s 754 mmHg 50%
    13:00 +8°C° 0 mm 3 m/s 754 mmHg 47%
    14:00 +9°C° 0 mm 3 m/s 753 mmHg 46%
    15:00 +9°C° 0 mm 3 m/s 753 mmHg 44%
    16:00 +9°C° 0 mm 3 m/s 752 mmHg 43%
    17:00 +8°C° 0 mm 3 m/s 753 mmHg 48%
    18:00 +5°C° 0 mm 3 m/s 753 mmHg 53%
    19:00 +4°C° 0 mm 3 m/s 753 mmHg 59%
    20:00 +3°C° 0 mm 3 m/s 753 mmHg 61%
    21:00 +3°C° 0 mm 2 m/s 753 mmHg 63%
    22:00 +3°C° 0 mm 2 m/s 752 mmHg 65%
    23:00 +2°C° 0 mm 2 m/s 752 mmHg 67%

    Après-demain, 8 Avril, Mercredi

    Heure Température Précipitation Vent Pression Humidité
    00:00 +2°C° 0 mm 2 m/s 752 mmHg 69%
    01:00 +1°C° 0 mm 2 m/s 751 mmHg 71%
    02:00 +1°C° 0 mm 2 m/s 751 mmHg 73%
    03:00 0°C° 0 mm 3 m/s 750 mmHg 75%
    04:00 -1°C° 0 mm 3 m/s 750 mmHg 77%
    05:00 -1°C° 0 mm 3 m/s 749 mmHg 74%
    06:00 -1°C° 0 mm 4 m/s 749 mmHg 71%
    07:00 -1°C° 0 mm 4 m/s 749 mmHg 68%
    08:00 0°C° 0 mm 4 m/s 749 mmHg 64%
    09:00 +1°C° 0 mm 4 m/s 748 mmHg 60%
    10:00 +3°C° 0 mm 4 m/s 748 mmHg 57%
    11:00 +4°C° 0 mm 4 m/s 748 mmHg 53%
    12:00 +5°C° 0 mm 4 m/s 747 mmHg 49%
    13:00 +6°C° 0 mm 4 m/s 747 mmHg 45%
    14:00 +6°C° 0 mm 4 m/s 747 mmHg 42%
    15:00 +7°C° 0 mm 4 m/s 747 mmHg 40%
    16:00 +7°C° 0 mm 4 m/s 747 mmHg 38%
    17:00 +7°C° 0 mm 3 m/s 747 mmHg 40%
    18:00 +5°C° 0 mm 3 m/s 748 mmHg 42%
    19:00 +3°C° 0 mm 3 m/s 748 mmHg 45%
    20:00 +3°C° 0 mm 3 m/s 748 mmHg 49%
    21:00 +2°C° 0 mm 3 m/s 749 mmHg 53%
    22:00 +1°C° 0 mm 3 m/s 749 mmHg 57%
    23:00 +1°C° 0 mm 3 m/s 749 mmHg 63%

    9 Avril, Jeudi

    Heure Température Précipitation Vent Pression Humidité
    00:00 0°C° 0 mm 3 m/s 749 mmHg 68%
    01:00 -1°C° 0 mm 3 m/s 749 mmHg 73%
    02:00 -1°C° 0 mm 3 m/s 748 mmHg 71%
    03:00 -1°C° 0 mm 3 m/s 748 mmHg 69%
    04:00 -2°C° 0 mm 3 m/s 747 mmHg 67%
    05:00 -2°C° 0 mm 4 m/s 747 mmHg 64%
    06:00 -2°C° 0 mm 4 m/s 746 mmHg 62%
    07:00 -2°C° 0 mm 4 m/s 746 mmHg 59%
    08:00 0°C° 0 mm 4 m/s 744 mmHg 59%
    09:00 +1°C° 0 mm 5 m/s 743 mmHg 59%
    10:00 +3°C° 0 mm 5 m/s 741 mmHg 58%
    11:00 +4°C° 1.9 mm 4 m/s 740 mmHg 70%
    12:00 +4°C° 1.9 mm 4 m/s 738 mmHg 81%
    13:00 +4°C° 1.9 mm 4 m/s 736 mmHg 93%
    14:00 +3°C° 2.1 mm 6 m/s 736 mmHg 87%
    15:00 +2°C° 2.1 mm 8 m/s 736 mmHg 80%
    16:00 +3°C° 2.1 mm 10 m/s 736 mmHg 74%
    17:00 +2°C° 0 mm 9 m/s 737 mmHg 72%
    18:00 +2°C° 0 mm 8 m/s 737 mmHg 70%
    19:00 +2°C° 0 mm 7 m/s 737 mmHg 68%
    20:00 +2°C° 0 mm 7 m/s 737 mmHg 65%
    21:00 0°C° 0 mm 8 m/s 738 mmHg 63%
    22:00 0°C° 0 mm 8 m/s 738 mmHg 60%
    23:00 -1°C° 0 mm 8 m/s 738 mmHg 62%

    10 Avril, Vendredi

    Heure Température Précipitation Vent Pression Humidité
    00:00 -1°C° 0 mm 8 m/s 738 mmHg 64%
    01:00 -2°C° 0 mm 8 m/s 738 mmHg 66%
    02:00 -2°C° 0 mm 8 m/s 738 mmHg 69%
    03:00 -2°C° 0 mm 8 m/s 738 mmHg 72%
    04:00 -2°C° 0 mm 8 m/s 738 mmHg 75%
    05:00 -2°C° 0 mm 8 m/s 738 mmHg 79%
    06:00 -2°C° 0 mm 8 m/s 738 mmHg 83%
    07:00 -2°C° 0 mm 8 m/s 739 mmHg 88%
    08:00 -2°C° 0.1 mm 8 m/s 739 mmHg 87%
    09:00 -1°C° 0.1 mm 8 m/s 739 mmHg 86%
    10:00 -1°C° 0.1 mm 8 m/s 739 mmHg 85%
    11:00 0°C° 0.2 mm 7 m/s 739 mmHg 81%
    12:00 +2°C° 0.2 mm 7 m/s 739 mmHg 77%
    13:00 +3°C° 0.2 mm 6 m/s 739 mmHg 73%
    14:00 +3°C° 0.2 mm 6 m/s 739 mmHg 69%
    15:00 +4°C° 0.2 mm 6 m/s 739 mmHg 66%
    16:00 +5°C° 0.2 mm 5 m/s 739 mmHg 62%
    17:00 +3°C° 0 mm 5 m/s 739 mmHg 66%
    18:00 +3°C° 0 mm 4 m/s 740 mmHg 71%
    19:00 +3°C° 0 mm 3 m/s 740 mmHg 76%
    20:00 +2°C° 0 mm 3 m/s 741 mmHg 77%
    21:00 +2°C° 0 mm 3 m/s 741 mmHg 78%
    22:00 +1°C° 0 mm 3 m/s 742 mmHg 79%
    23:00 +1°C° 0 mm 3 m/s 742 mmHg 80%

    11 Avril, Samedi

    Heure Température Précipitation Vent Pression Humidité
    00:00 0°C° 0 mm 3 m/s 742 mmHg 80%
    01:00 0°C° 0 mm 3 m/s 743 mmHg 81%
    02:00 -1°C° 0 mm 4 m/s 743 mmHg 80%
    03:00 -1°C° 0 mm 4 m/s 744 mmHg 80%
    04:00 -1°C° 0 mm 4 m/s 744 mmHg 80%
    05:00 -1°C° 0 mm 4 m/s 745 mmHg 78%
    06:00 -1°C° 0 mm 5 m/s 745 mmHg 77%
    07:00 -1°C° 0 mm 5 m/s 746 mmHg 75%
    08:00 0°C° 0 mm 5 m/s 746 mmHg 71%
    09:00 +1°C° 0 mm 5 m/s 747 mmHg 67%
    10:00 +2°C° 0 mm 6 m/s 747 mmHg 63%
    11:00 +2°C° 0.1 mm 6 m/s 747 mmHg 62%
    12:00 +3°C° 0.1 mm 6 m/s 747 mmHg 62%
    13:00 +3°C° 0.1 mm 7 m/s 747 mmHg 61%
    14:00 +3°C° 0.1 mm 7 m/s 747 mmHg 60%
    15:00 +3°C° 0.1 mm 7 m/s 748 mmHg 59%
    16:00 +3°C° 0.1 mm 7 m/s 748 mmHg 57%
    17:00 +3°C° 0 mm 6 m/s 748 mmHg 60%
    18:00 +2°C° 0 mm 5 m/s 749 mmHg 62%
    19:00 +1°C° 0 mm 4 m/s 750 mmHg 64%
    20:00 +1°C° 0 mm 4 m/s 750 mmHg 66%
    21:00 0°C° 0 mm 4 m/s 751 mmHg 69%
    22:00 +1°C° 0 mm 3 m/s 751 mmHg 72%
    23:00 0°C° 0 mm 3 m/s 751 mmHg 74%
    Voir plus